Regional Weather Roundup
Issued by NWS

Home | Current Version | Previous Version | Graphics & Text | Print | Product List | Glossary On
Versions: 1 2 3 4 5 6 7 8 9 10 11 12 13 14 15 16 17 18 19 20 21 22 23 24 25 26 27 28 29 30 31 32 33 34 35 36 37 38 39 40 41 42 43 44 45 46 47 48 49 50
000
ASUS45 KSLC 040910
RWRUT
UTAH REGIONAL WEATHER ROUNDUP
NATIONAL WEATHER SERVICE SALT LAKE CITY UT
300 AM MDT TUE AUG 04 2015

UTZ001>011-023>025-041000-

NORTHERN UTAH

CITY           SKY/WX    TMP DP  RH WIND       PRES   REMARKS
BRIGHAM CITY   PTCLDY    59  56  89 CALM      30.09S
HILL AFB       PTCLDY    59  57  93 SE10      30.10F
LOGAN          CLEAR     55  53  93 N6        30.10S
OGDEN          PTCLDY    59  56  89 S6        30.08F
PROVO AIRPORT  CLEAR     57  52  82 SE3       30.11S
SALT LAKE CITY CLEAR     62  54  74 SE5       30.08S
VERNAL         PTCLDY    58  50  75 W3        30.11S
WENDOVER       PTCLDY    66  50  55 W5        30.08R
HEBER CITY     CLEAR     50  48  93 CALM      30.19R
WEST JORDAN    CLEAR     59  55  88 S6        30.10F

$$

UTZ012>022-026-027-041000-

SOUTHERN/CENTRAL UTAH

CITY           SKY/WX    TMP DP  RH WIND       PRES   REMARKS
BLANDING       PTCLDY    63  47  56 N7        30.23S
BRYCE CANYON   CLEAR     49  43  80 NW7       30.32R
CEDAR CITY     CLEAR     62  42  47 S5        30.14F
DELTA          CLEAR     61  55  79 NE7       30.09S
HANKSVILLE     CLEAR     61  55  82 CALM      30.09F
MILFORD        CLEAR     59  47  64 W5        30.10S
MOAB/CYNLANDS  CLEAR     61  56  83 CALM      30.07S
PRICE          CLEAR     58  49  72 NE7       30.16S
ST GEORGE      SUNNY     84  43  23 E9        29.93S
KANAB          PTCLDY    64  43  45 NE3       30.16S

$$

REGIONAL REPORTS     COLORADO/ARIZONA

CITY           SKY/WX    TMP DP  RH WIND       PRES   REMARKS
CRAIG, CO      PTCLDY    52  50  93 CALM      30.18F
GRAND JUNCTION PTCLDY    62  50  64 W3        30.10F
RIFLE          MOCLDY    60  52  74 E7        30.14F
MONTROSE       CLOUDY    66  49  54 S7        30.20R
CORTEZ         LGT RAIN  61  53  75 E13G25    30.18F
PAGE, AZ       PTCLDY    82  43  25 N8        30.04R
GRAND CANYON   CLEAR     48  38  68 CALM      30.26R
KINGMAN        CLEAR     80  36  20 S12       29.97S
FLAGSTAFF      CLEAR     54  42  64 SW3       30.29S

$$

REGIONAL REPORTS    NEVADA/IDAHO/WYOMING

CITY           SKY/WX    TMP DP  RH WIND       PRES   REMARKS
LAS VEGAS, NV  PTCLDY    88  27  11 S6        29.80R
ELY            CLEAR     52  39  61 S12       30.18S
ELKO           CLEAR     62  44  51 NE5       30.07R
POCATELLO, ID  CLEAR     60  57  89 N6        30.07R
BURLEY         CLEAR     64  51  62 SE6       30.00R
EVANSTON, WY   PTCLDY    49  46  90 W7        30.23S
ROCK SPRINGS   MOCLDY    53  50  89 SW10      30.15F
KEMMERER       PTCLDY    50  50 100 W13       30.21S

$$



USA.gov is the U.S. government's official web portal to all federal, state and local government web resources and services.